Location: Home
(42.5358°N, 72.7383°W)
Time: 13:24:08
(UTC-05:00)

Transit 2A Rocket - Pass Details

Date: 05 December 2021
Orbit: 584 x 918 km, 66.7° (Epoch: 22 January)

Event Time Altitude Azimuth Distance (km) Brightness Sun altitude
Rises 05:37:29 0° 164° (SSE) 3,273 8.7 -15.7°
Reaches altitude 10° 05:40:30 10° 146° (SE) 2,410 8.3 -15.1°
Maximum altitude 05:44:15 19° 104° (ESE) 1,942 8.2 -14.5°
Drops below altitude 10° 05:48:11 10° 62° (ENE) 2,546 8.3 -13.8°
Sets 05:51:29 0° 45° (NE) 3,527 8.8 -13.2°
